E8559 Weather Reports


time (UTC)temp
F
wind
direction
speed
knots
gust
knots
rain 1hr
in
rain 24hr
in
rain mn
in
humidity
%
barometer
mb
20260506190056 58 216 1.7 7.0 0.03 0.09 0.09 96 1008.0
20260506184556 58 148 1.7 6.1 0.03 0.09 0.09 96 1008.2
20260506183055 58 160 1.7 7.0 0.05 0.09 0.09 95 1008.5
20260506181557 58 236 2.6 10.4 0.07 0.07 0.07 94 1008.5
20260506180106 58 0 1.7 7.8 0.06 0.06 0.06 94 1008.2
20260506174558 59 172 0.0 5.2 0.06 0.06 0.06 93 1008.7
20260506173116 59 0 1.7 7.0 0.04 0.04 0.04 91 1009.0
20260506171601 60 326 0.9 3.5 0.00 0.00 0.00 88 1009.4
20260506170059 61 103 0.9 6.1 0.00 0.00 0.00 86 1009.8
20260506164556 62 276 1.7 8.7 0.00 0.00 0.00 84 1009.8
20260506163107 62 161 2.6 9.6 0.00 0.00 0.00 83 1009.8
20260506161600 63 163 2.6 9.6 0.00 0.00 0.00 81 1009.8
20260506160107 63 158 3.5 12.2 0.00 0.00 0.00 81 1010.0
20260506154558 63 188 3.5 10.4 0.00 0.00 0.00 82 1010.1
20260506153100 63 64 3.5 7.0 0.00 0.00 0.00 81 1010.2
20260506151559 63 283 1.7 7.0 0.00 0.00 0.00 81 1009.9
20260506144601 65 160 1.7 8.7 0.00 0.00 0.00 80 1010.0
20260506143059 65 256 5.2 12.2 0.00 0.00 0.00 78 1010.2
20260506141609 65 11 3.5 10.4 0.00 0.00 0.00 78 1010.0
20260506140101 65 140 1.7 8.7 0.00 0.00 0.00 80 1010.4
20260506134619 65 163 2.6 10.4 0.00 0.00 0.00 80 1010.3
20260506133056 64 157 2.6 8.7 0.00 0.00 0.00 81 1010.2
20260506131608 63 190 2.6 8.7 0.00 0.00 0.00 82 1010.1
20260506130055 62 161 3.5 11.3 0.00 0.00 0.00 83 1010.1
20260506124556 62 130 2.6 8.7 0.00 0.00 0.00 84 1010.4
20260506123058 62 175 1.7 9.6 0.00 0.00 0.00 85 1010.8
20260506121605 61 221 2.6 7.8 0.00 0.00 0.00 86 1010.7
20260506114556 59 142 1.7 7.8 0.00 0.00 0.00 90 1010.6
20260506113058 58 242 0.9 6.1 0.00 0.00 0.00 91 1010.7
20260506111612 58 166 1.7 6.1 0.00 0.00 0.00 92 1010.8
20260506110058 57 146 1.7 5.2 0.00 0.00 0.00 93 1011.0
20260506104559 56 146 0.9 6.1 0.00 0.00 0.00 93 1010.6
20260506103101 55 273 0.0 7.0 0.00 0.00 0.00 93 1010.7
20260506101557 55 210 0.9 4.3 0.00 0.00 0.00 93 1010.7
20260506100101 55 115 0.0 5.2 0.00 0.00 0.00 93 1010.6
20260506094555 56 114 0.9 6.1 0.00 0.00 0.00 92 1010.4
20260506093059 56 169 0.9 6.1 0.00 0.00 0.00 92 1010.5
20260506091555 56 140 1.7 5.2 0.00 0.00 0.00 92 1010.6
20260506090056 56 30 0.9 6.1 0.00 0.00 0.00 91 1010.7
20260506084605 56 0 0.9 3.5 0.00 0.00 0.00 91 1010.7
20260506083114 56 146 0.9 4.3 0.00 0.00 0.00 90 1010.8
20260506081558 57 0 0.9 6.1 0.00 0.00 0.00 90 1010.8
20260506073056 57 66 0.9 5.2 0.00 0.00 0.00 89 1010.9
20260506071559 57 0 0.9 6.1 0.00 0.00 0.00 88 1011.1
20260506070126 57 57 0.9 4.3 0.00 0.00 0.00 87 1011.0
20260506061556 58 173 1.7 8.7 0.00 0.00 0.00 86 1010.8
20260506050109 59 250 1.7 7.0 0.00 0.00 0.00 83 1011.2
20260506044558 60 157 2.6 7.8 0.00 0.00 0.00 83 1011.4
20260506043058 60 272 0.9 7.8 0.00 0.00 0.00 82 1011.3
20260506041621 61 122 2.6 9.6 0.00 0.00 0.00 82 1011.4
20260506040101 60 49 1.7 7.0 0.00 0.00 0.00 82 1011.4
20260506034601 61 236 1.7 5.2 0.00 0.00 0.00 81 1011.4
20260506033059 61 351 2.6 11.3 0.00 0.00 0.00 80 1011.5
20260506031601 61 306 1.7 11.3 0.00 0.00 0.00 78 1011.4
20260506030059 61 137 0.9 8.7 0.00 0.00 0.00 76 1011.4
20260506024601 62 227 2.6 11.3 0.00 0.00 0.00 75 1011.4
20260506023057 62 340 1.7 8.7 0.00 0.00 0.00 75 1011.3
20260506021558 62 199 2.6 9.6 0.00 0.00 0.00 74 1011.3
20260506020111 62 302 2.6 11.3 0.00 0.00 0.00 74 1011.2
20260506014612 61 279 2.6 10.4 0.00 0.00 0.00 76 1011.1
20260506013057 61 48 0.9 7.0 0.00 0.00 0.00 75 1010.9
20260506011619 62 132 0.9 7.0 0.00 0.00 0.00 74 1010.8
20260506010056 62 271 2.6 9.6 0.00 0.00 0.00 74 1010.6
20260506004605 62 214 2.6 9.6 0.00 0.00 0.00 73 1010.5
20260506003058 62 233 1.7 10.4 0.00 0.00 0.00 72 1010.3
20260506001602 63 0 2.6 8.7 0.00 0.00 0.00 71 1009.9
20260506000120 63 275 1.7 10.4 0.00 0.00 0.00 71 1009.8
20260505234557 64 199 0.9 8.7 0.00 0.00 0.00 70 1009.6
20260505233100 64 228 1.7 8.7 0.00 0.00 0.00 68 1009.4
20260505231614 66 117 0.9 10.4 0.00 0.00 0.00 68 1009.2
20260505230107 67 301 2.6 9.6 0.00 0.00 0.00 66 1008.8
20260505224600 67 319 1.7 11.3 0.00 0.00 0.00 65 1009.0
20260505223103 68 136 1.7 7.8 0.00 0.00 0.00 64 1009.1
20260505221604 69 309 1.7 10.4 0.00 0.00 0.00 65 1009.1
20260505220058 69 97 2.6 9.6 0.00 0.00 0.00 65 1008.9
20260505214557 70 223 2.6 11.3 0.00 0.00 0.00 64 1008.8
20260505213059 70 314 3.5 11.3 0.00 0.00 0.00 65 1008.8
20260505211558 69 131 3.5 10.4 0.00 0.00 0.00 63 1008.8
20260505210057 71 118 3.5 12.2 0.00 0.00 0.00 62 1008.7
20260505204602 71 304 0.9 13.9 0.00 0.00 0.00 64 1008.6
20260505203102 72 360 2.6 8.7 0.00 0.00 0.00 63 1008.6
20260505201557 72 126 1.7 10.4 0.00 0.00 0.00 62 1008.7
20260505200056 72 307 2.6 8.7 0.00 0.00 0.00 61 1009.0
20260505194618 73 164 3.5 9.6 0.00 0.00 0.00 61 1008.9
20260505193106 72 200 2.6 11.3 0.00 0.00 0.00 61 1009.1
20260505191609 73 110 4.3 12.2 0.00 0.00 0.00 60 1009.2